Sigfox identifier Datetime Temperature Humidity SNR
002EED2C 2019-04-23 15:03:19 21.6 30 18.2
002EED2C 2019-04-23 14:30:55 21.6 30 18.5
002EED2C 2019-04-23 13:58:32 21.6 30 18.7
002EED2C 2019-04-23 13:26:02 21.5 30 19.1
002EED2C 2019-04-23 12:53:35 21.4 30 19.4
002EED2C 2019-04-23 12:21:10 21.4 30 19.4
002EED2C 2019-04-23 11:48:47 21.4 29 19.4
002EED2C 2019-04-23 11:16:23 21.4 29 19.5
002EED2C 2019-04-23 10:43:58 21.3 29 19.6
002EED2C 2019-04-23 10:11:31 21.2 29 20.1
002EED2C 2019-04-23 09:39:07 21.2 29 20.1
002EED2C 2019-04-23 09:06:42 21.1 28 21.5
002EED2C 2019-04-23 08:34:17 21.1 28 21.5
002EED2C 2019-04-23 08:01:52 21 28 21.6
002EED2C 2019-04-23 07:29:26 21.1 28 21.7
002EED2C 2019-04-23 06:57:01 21.1 28 21.7
002EED2C 2019-04-23 06:24:36 21.1 28 21.8
002EED2C 2019-04-23 05:52:11 21.1 28 21.7
002EED2C 2019-04-23 05:19:45 21.1 28 21.9
002EED2C 2019-04-23 04:47:22 21.1 28 22
002EED2C 2019-04-23 04:14:57 21.1 28 22.1
002EED2C 2019-04-23 03:42:32 21.1 28 22
002EED2C 2019-04-23 03:10:07 21.1 28 21.9
002EED2C 2019-04-23 02:37:43 21.1 28 21.8
002EED2C 2019-04-23 02:05:18 21.2 28 21.7
002EED2C 2019-04-23 01:32:53 21.2 28 21.7
002EED2C 2019-04-23 01:00:28 21.2 28 21.6
002EED2C 2019-04-23 00:28:03 21.2 28 21.6
002EED2C 2019-04-22 23:55:38 21.2 28 21.3
002EED2C 2019-04-22 23:23:13 21.2 28 21.2
002EED2C 2019-04-22 22:50:48 21.2 28 21.3
002EED2C 2019-04-22 22:18:23 21 28 21.4
002EED2C 2019-04-22 21:45:58 21 28 21.5
002EED2C 2019-04-22 21:13:33 21 28 21.2
002EED2C 2019-04-22 20:41:08 21 28 21.4
002EED2C 2019-04-22 20:08:44 21 28 20
002EED2C 2019-04-22 19:36:21 21 28 20
002EED2C 2019-04-22 19:03:53 21 28 20.3
002EED2C 2019-04-22 18:31:28 21 28 20.5
002EED2C 2019-04-22 17:59:02 21 28 20.8
002EED2C 2019-04-22 17:26:38 21 28 20.8
002EED2C 2019-04-22 16:54:12 21 28 20.6
002EED2C 2019-04-22 16:21:49 21 28 20.4
002EED2C 2019-04-22 15:49:23 21 28 20.3
002EED2C 2019-04-22 15:16:58 21 28 20.3
002EED2C 2019-04-22 14:44:34 21 28 20
002EED2C 2019-04-22 14:12:09 21 28 20.2
002EED2C 2019-04-22 13:39:45 21.1 28 20.1
002EED2C 2019-04-22 13:07:21 21 28 20.3
002EED2C 2019-04-22 12:34:57 21.1 28 20.1
002EED2C 2019-04-22 12:02:32 21.2 28 20.3
002EED2C 2019-04-22 11:30:06 21.2 27 20.3
002EED2C 2019-04-22 10:57:41 21.2 27 20.5
002EED2C 2019-04-22 10:25:16 21.2 27 20.8
002EED2C 2019-04-22 09:52:50 21.2 27 21
002EED2C 2019-04-22 09:20:26 21.2 27 21
002EED2C 2019-04-22 08:48:00 21.2 27 21
002EED2C 2019-04-22 08:15:35 21.2 27 21.4
002EED2C 2019-04-22 07:43:09 21.2 27 21.4
002EED2C 2019-04-22 07:10:46 21.2 27 21.6
002EED2C 2019-04-22 06:38:19 21.2 27 21.6
002EED2C 2019-04-22 06:05:54 21.2 27 21.4
002EED2C 2019-04-22 05:33:28 21.2 27 21.2
002EED2C 2019-04-22 05:01:05 21.2 27 21.1
002EED2C 2019-04-22 04:28:40 21.2 27 20.9
002EED2C 2019-04-22 03:56:16 21.2 27 20.8
002EED2C 2019-04-22 03:23:52 21.2 27 20.8
002EED2C 2019-04-22 02:51:28 21.2 27 20.8
002EED2C 2019-04-22 02:19:02 21.2 27 20.6
002EED2C 2019-04-22 01:46:37 21.2 27 20.5
002EED2C 2019-04-22 01:14:14 21.3 27 20.7
002EED2C 2019-04-22 00:41:50 21.3 27 20.7
002EED2C 2019-04-22 00:09:26 21.4 27 20.7
002EED2C 2019-04-21 23:37:03 21.4 27 20.9
002EED2C 2019-04-21 23:04:39 21.4 27 21
002EED2C 2019-04-21 22:32:16 21.4 27 20.9
002EED2C 2019-04-21 21:59:52 21.4 27 20.7
002EED2C 2019-04-21 21:27:29 21.4 27 20.4
002EED2C 2019-04-21 20:55:05 21.4 27 20.1
002EED2C 2019-04-21 20:22:41 21.4 27 20.1
002EED2C 2019-04-21 19:50:18 21.4 27 19.8
002EED2C 2019-04-21 19:17:55 21.4 27 19.2
002EED2C 2019-04-21 18:45:31 21.3 27 19
002EED2C 2019-04-21 18:13:07 21.2 27 18.5
002EED2C 2019-04-21 17:40:43 21.2 27 18.9
002EED2C 2019-04-21 17:08:19 21.2 27 18.9
002EED2C 2019-04-21 16:35:55 21.2 27 19
002EED2C 2019-04-21 16:03:31 21.2 27 19
002EED2C 2019-04-21 15:31:07 21.2 27 19
002EED2C 2019-04-21 14:58:42 21.2 27 18.9
002EED2C 2019-04-21 14:26:20 21.2 27 19.1
002EED2C 2019-04-21 13:53:56 21 27 19.4
002EED2C 2019-04-21 13:21:31 21 27 19.8
002EED2C 2019-04-21 12:49:08 21 27 19.5
002EED2C 2019-04-21 12:16:45 21 27 19.5
002EED2C 2019-04-21 11:44:21 21 27 19.8
002EED2C 2019-04-21 11:11:56 21 27 19.5
002EED2C 2019-04-21 10:39:33 21 27 19.4
002EED2C 2019-04-21 10:07:09 21 27 19
002EED2C 2019-04-21 09:34:45 21 27 19.3
002EED2C 2019-04-21 09:02:21 21 27 19.7
002EED2C 2019-04-21 08:29:58 21 26 19.8
002EED2C 2019-04-21 07:57:34 21 27 19.9
002EED2C 2019-04-21 07:25:12 21 27 20
002EED2C 2019-04-21 06:52:49 21 26 20.2
002EED2C 2019-04-21 06:20:25 21 27 20.2
002EED2C 2019-04-21 05:48:00 21 26 20.2
002EED2C 2019-04-21 05:15:36 21.1 26 20.3
002EED2C 2019-04-21 04:43:12 21.2 26 20
002EED2C 2019-04-21 04:10:47 21.2 26 20.5
002EED2C 2019-04-21 03:38:22 21.2 26 20.3
002EED2C 2019-04-21 03:05:57 21.2 26 20.3
002EED2C 2019-04-21 02:33:33 21.2 26 20.6
002EED2C 2019-04-21 02:01:08 21.2 26 20.5
002EED2C 2019-04-21 01:28:43 21.2 26 20.6
002EED2C 2019-04-21 00:56:18 21.2 26 20.7
002EED2C 2019-04-21 00:23:54 21.2 26 20.7
002EED2C 2019-04-20 23:51:30 21.2 26 20.7
002EED2C 2019-04-20 23:19:05 21.2 26 20.9
002EED2C 2019-04-20 22:46:40 21.2 26 20.9
002EED2C 2019-04-20 22:14:15 21.2 26 20.6
002EED2C 2019-04-20 21:41:49 21.2 26 20.5
002EED2C 2019-04-20 21:09:24 21.2 26 20.6
002EED2C 2019-04-20 20:36:59 21.2 25 21
002EED2C 2019-04-20 20:04:34 21.2 25 20.7
002EED2C 2019-04-20 19:32:09 21.2 25 20.5
002EED2C 2019-04-20 18:59:44 21.2 25 20.5
002EED2C 2019-04-20 18:27:18 21.2 25 20.4
002EED2C 2019-04-20 17:54:53 21.2 25 20.3
002EED2C 2019-04-20 17:22:28 21.2 25 20.3
002EED2C 2019-04-20 16:50:04 21.2 25 20.5
002EED2C 2019-04-20 16:17:39 21.2 25 20.7
002EED2C 2019-04-20 15:45:15 21.2 25 20.6
002EED2C 2019-04-20 15:12:50 21.2 25 20.7
002EED2C 2019-04-20 14:40:25 21.2 25 20.3
002EED2C 2019-04-20 14:08:00 21.2 25 20.5
002EED2C 2019-04-20 13:35:35 21.2 25 20.4
002EED2C 2019-04-20 13:03:09 21.1 25 20.2
002EED2C 2019-04-20 12:30:47 21.1 25 20.3
002EED2C 2019-04-20 11:58:21 21.1 24 20.1
002EED2C 2019-04-20 11:25:57 21.2 24 20.5
002EED2C 2019-04-20 10:53:33 21.1 24 20.3
002EED2C 2019-04-20 10:21:08 21.1 24 20.2
002EED2C 2019-04-20 09:48:43 21.1 24 20.3
002EED2C 2019-04-20 09:16:20 21.1 24 20.6
002EED2C 2019-04-20 08:43:56 21 24 20.6
002EED2C 2019-04-20 08:11:31 21.1 24 20.7
002EED2C 2019-04-20 07:39:06 21.1 24 20.7
002EED2C 2019-04-20 07:06:43 21 24 20.5
002EED2C 2019-04-20 06:34:18 21 24 20.8
002EED2C 2019-04-20 06:01:53 21 24 20.9
002EED2C 2019-04-20 05:29:27 21 24 21.2
002EED2C 2019-04-20 04:57:03 21 24 21.4
002EED2C 2019-04-20 04:24:39 21 24 21.2
002EED2C 2019-04-20 03:52:15 21 24 21.1
002EED2C 2019-04-20 03:19:50 21 24 21.1
002EED2C 2019-04-20 02:47:25 21 24 21.2
002EED2C 2019-04-20 02:15:02 21 24 21.2
002EED2C 2019-04-20 01:42:37 21 24 21.4
002EED2C 2019-04-20 01:10:12 21 24 21.4
002EED2C 2019-04-20 00:37:47 21 24 21.6
002EED2C 2019-04-20 00:05:21 21 24 21.6
002EED2C 2019-04-19 23:33:00 21 24 21.7
002EED2C 2019-04-19 23:00:31 21 24 21.9
002EED2C 2019-04-19 22:28:08 21 24 21.9
002EED2C 2019-04-19 21:55:44 21 24 21.6
002EED2C 2019-04-19 21:23:21 21 24 21.7
002EED2C 2019-04-19 20:50:56 21 24 21.7
002EED2C 2019-04-19 20:18:31 21 24 21.6
002EED2C 2019-04-19 19:46:07 21 24 21.3
002EED2C 2019-04-19 19:13:44 20.8 24 21.4
002EED2C 2019-04-19 18:41:18 20.8 24 21.5
002EED2C 2019-04-19 18:08:53 20.9 24 21.4
002EED2C 2019-04-19 17:36:29 20.8 24 21.4
002EED2C 2019-04-19 17:04:05 20.8 24 21.2
002EED2C 2019-04-19 16:31:40 20.9 24 21.3
002EED2C 2019-04-19 15:59:18 20.8 24 21
002EED2C 2019-04-19 15:26:55 20.9 24 20.8
002EED2C 2019-04-19 14:54:31 20.9 24 21
002EED2C 2019-04-19 14:22:07 20.9 24 21.2
002EED2C 2019-04-19 13:49:43 20.9 24 21
002EED2C 2019-04-19 13:17:19 21 25 21
002EED2C 2019-04-19 12:44:56 21 25 21.1
002EED2C 2019-04-19 12:12:32 21 25 21.1
002EED2C 2019-04-19 11:40:07 21 25 21.2
002EED2C 2019-04-19 11:07:43 21 25 21.2
002EED2C 2019-04-19 10:35:19 21 25 21.2
002EED2C 2019-04-19 10:02:54 21.1 25 21.2
002EED2C 2019-04-19 09:30:30 21.2 25 20.9
002EED2C 2019-04-19 08:58:06 21.2 26 20.9
002EED2C 2019-04-19 08:25:42 21.2 26 21
002EED2C 2019-04-19 07:53:18 21.2 26 21.1
002EED2C 2019-04-19 07:20:54 21.2 26 21.1
002EED2C 2019-04-19 06:48:31 21.2 26 21.2
002EED2C 2019-04-19 06:16:09 21.2 26 21.1
002EED2C 2019-04-19 05:43:44 21.2 26 20.9
002EED2C 2019-04-19 05:11:19 21.2 26 20.8
002EED2C 2019-04-19 04:38:54 21.2 26 21
002EED2C 2019-04-19 04:06:29 21.2 26 20.8
002EED2C 2019-04-19 03:34:04 21.2 26 20.8
002EED2C 2019-04-19 03:01:40 21.2 26 20.5
002EED2C 2019-04-19 02:29:15 21.2 26 20.4
002EED2C 2019-04-19 01:56:51 21.2 26 21.7
002EED2C 2019-04-19 01:24:27 21.2 26 21.8
002EED2C 2019-04-19 00:52:03 21.2 26 22
002EED2C 2019-04-19 00:19:40 21.4 26 22.6
002EED2C 2019-04-18 23:47:13 21.3 26 23.3
002EED2C 2019-04-18 23:14:48 21.3 26 23.4
002EED2C 2019-04-18 22:42:26 21.2 26 23.4
002EED2C 2019-04-18 22:10:00 21.3 26 23.6
002EED2C 2019-04-18 21:37:36 21.2 26 23.7
002EED2C 2019-04-18 21:05:11 21.2 26 24
002EED2C 2019-04-18 20:32:47 21.2 26 24.1
002EED2C 2019-04-18 20:00:24 21.3 26 24.3
002EED2C 2019-04-18 19:27:56 21.4 26 24.4
002EED2C 2019-04-18 18:55:31 21.4 26 24.6
002EED2C 2019-04-18 18:23:05 21.4 26 24.6
002EED2C 2019-04-18 17:50:40 21.4 26 24.7
002EED2C 2019-04-18 17:18:15 21.4 26 24.9
002EED2C 2019-04-18 16:45:49 21.5 26 25
002EED2C 2019-04-18 16:13:23 21.6 26 25.1
002EED2C 2019-04-18 15:40:58 21.6 26 25.3
002EED2C 2019-04-18 15:08:31 21.6 26 25.4
002EED2C 2019-04-18 14:36:05 21.6 26 25.5
002EED2C 2019-04-18 14:03:45 21.8 26 25.7
002EED2C 2019-04-18 13:31:15 21.8 26 25.8
002EED2C 2019-04-18 12:58:50 22 26 26
002EED2C 2019-04-18 12:26:24 22.2 26 25.8
002EED2C 2019-04-18 11:53:58 22.5 22 26
002EED2C 2019-04-18 11:21:32 22.4 22 26
002EED2C 2019-04-18 10:49:06 22.2 23 25.9
002EED2C 2019-04-18 10:16:41 22.2 23 25.6
002EED2C 2019-04-18 09:44:15 22.2 23 25.7
002EED2C 2019-04-18 09:11:49 22.2 22 25.7
002EED2C 2019-04-18 08:39:23 22.2 22 25.7
002EED2C 2019-04-18 08:06:58 22.2 22 25.7
002EED2C 2019-04-18 07:34:32 22.2 22 25.6
002EED2C 2019-04-18 07:02:06 22.2 22 25.6
002EED2C 2019-04-18 06:29:40 22.2 23 25.5
002EED2C 2019-04-18 05:57:16 22.2 23 25.7
002EED2C 2019-04-18 05:24:49 22.2 23 25.5
002EED2C 2019-04-18 04:52:24 22.2 23 25.5
002EED2C 2019-04-18 04:19:59 22.2 23 25.5
002EED2C 2019-04-18 03:47:34 22.2 23 25.5
002EED2C 2019-04-18 03:15:08 22.2 23 25.6
002EED2C 2019-04-18 02:42:43 22.3 23 25.5
002EED2C 2019-04-18 02:10:17 22.4 23 25.7
002EED2C 2019-04-18 01:37:52 22.4 23 25.7
002EED2C 2019-04-18 01:05:26 22.5 23 25.7
002EED2C 2019-04-18 00:33:00 22.4 23 25.6
002EED2C 2019-04-18 00:00:34 22.5 24 25.6
002EED2C 2019-04-17 23:28:10 22.5 23 25.5
002EED2C 2019-04-17 22:55:45 22.5 24 25.3
002EED2C 2019-04-17 22:23:21 22.5 24 25.3
002EED2C 2019-04-17 21:50:56 22.6 23 25.2
002EED2C 2019-04-17 21:18:32 22.7 23 25.1
002EED2C 2019-04-17 20:46:07 22.7 23 25.1
002EED2C 2019-04-17 20:13:43 22.9 23 25.1
002EED2C 2019-04-17 19:41:19 22.9 23 25
002EED2C 2019-04-17 19:08:54 22.9 23 25
002EED2C 2019-04-17 18:36:31 22.8 23 24.9
002EED2C 2019-04-17 18:04:06 22.9 22 24.9
002EED2C 2019-04-17 17:31:42 22.9 22 25.3
002EED2C 2019-04-17 16:59:17 23.1 22 25.3
002EED2C 2019-04-17 16:26:52 23.1 23 25.3
002EED2C 2019-04-17 15:54:28 23.1 23 25.3
002EED2C 2019-04-17 15:22:04 23.1 23 25.4
002EED2C 2019-04-17 14:49:39 23.1 24 25.4
002EED2C 2019-04-17 14:17:14 22.9 24 25.4
002EED2C 2019-04-17 13:44:49 22.9 24 25.3
002EED2C 2019-04-17 13:12:24 22.7 24 25.5
002EED2C 2019-04-17 12:39:59 22.7 24 25.1
002EED2C 2019-04-17 12:07:34 22.5 23 25
002EED2C 2019-04-17 11:35:10 22.5 23 24.9
002EED2C 2019-04-17 11:02:45 22.4 23 25.1
002EED2C 2019-04-17 10:30:21 22.2 22 25.1
002EED2C 2019-04-17 09:57:58 22.2 22 25
002EED2C 2019-04-17 09:25:34 22.2 22 25
002EED2C 2019-04-17 08:53:10 22.2 22 25
002EED2C 2019-04-17 08:20:46 22.2 22 25
002EED2C 2019-04-17 07:48:21 22.2 21 25
002EED2C 2019-04-17 07:15:57 22.2 20 25.1
002EED2C 2019-04-17 06:43:33 22.1 20 25.2
002EED2C 2019-04-17 06:11:09 22.1 20 25.2
002EED2C 2019-04-17 05:38:44 22 21 25.5
002EED2C 2019-04-17 05:06:19 22 21 25.5
002EED2C 2019-04-17 04:33:54 22.2 21 25.5
002EED2C 2019-04-17 04:01:29 22.2 21 25
002EED2C 2019-04-17 03:29:05 22.2 21 25
002EED2C 2019-04-17 02:56:41 22.1 21 24.9
002EED2C 2019-04-17 02:24:17 22.2 21 25
002EED2C 2019-04-17 01:51:52 22.2 21 24.9
002EED2C 2019-04-17 01:19:28 22.2 21 25
002EED2C 2019-04-17 00:47:04 22.2 21 24.9
002EED2C 2019-04-17 00:14:40 22.2 21 24.9
002EED2C 2019-04-16 23:42:14 22.2 21 24.8
002EED2C 2019-04-16 23:09:49 22.2 21 24.8
002EED2C 2019-04-16 22:37:24 22.3 21 24.8
002EED2C 2019-04-16 22:05:01 22.4 21 24.9
002EED2C 2019-04-16 21:32:37 22.5 21 24.9
002EED2C 2019-04-16 21:00:12 22.5 21 24.9
002EED2C 2019-04-16 20:27:48 22.5 21 24.8
002EED2C 2019-04-16 19:55:23 22.5 20 24.9
002EED2C 2019-04-16 19:22:59 22.5 20 24.9
002EED2C 2019-04-16 18:50:34 22.5 20 24.9
002EED2C 2019-04-16 18:18:09 22.5 20 24.9
002EED2C 2019-04-16 17:45:44 22.6 19 24.9
002EED2C 2019-04-16 17:13:19 22.7 19 24.8
002EED2C 2019-04-16 16:40:55 22.9 20 24.8
002EED2C 2019-04-16 16:08:30 22.9 20 24.5
002EED2C 2019-04-16 15:36:05 22.9 20 24.5
002EED2C 2019-04-16 15:03:41 22.9 20 24.6
002EED2C 2019-04-16 14:31:16 22.8 20 24.7
002EED2C 2019-04-16 13:58:52 22.7 19 24.7
002EED2C 2019-04-16 13:26:28 22.7 19 24.7
002EED2C 2019-04-16 12:54:03 22.6 20 24.7
002EED2C 2019-04-16 12:21:39 22.5 19 24.7
002EED2C 2019-04-16 11:49:13 22.4 19 24.8
002EED2C 2019-04-16 11:16:48 22.2 19 24.9
002EED2C 2019-04-16 10:44:24 22.2 19 25.3
002EED2C 2019-04-16 10:12:00 22.2 19 25.3
002EED2C 2019-04-16 09:39:35 22.2 19 25.4
002EED2C 2019-04-16 09:07:12 22.1 19 25.5
002EED2C 2019-04-16 08:34:47 22 19 25.5
002EED2C 2019-04-16 08:02:23 22 19 25.5
002EED2C 2019-04-16 07:29:57 22.1 18 25.5
002EED2C 2019-04-16 06:57:33 22 18 25.6
002EED2C 2019-04-16 06:25:08 22.1 18 25.8
002EED2C 2019-04-16 05:52:44 22 18 25.8
002EED2C 2019-04-16 05:20:19 22 18 25.8
002EED2C 2019-04-16 04:47:55 22 18 25.8
002EED2C 2019-04-16 04:15:31 22 18 25.7
002EED2C 2019-04-16 03:43:07 22.1 18 25.8
002EED2C 2019-04-16 03:10:43 22.1 18 26.1
002EED2C 2019-04-16 02:38:18 22.1 18 26
002EED2C 2019-04-16 02:05:53 22 18 25.9
002EED2C 2019-04-16 01:33:28 22.1 18 26.3
002EED2C 2019-04-16 01:01:04 22.2 18 26.3
002EED2C 2019-04-16 00:28:41 22.2 18 26.3
002EED2C 2019-04-15 23:56:16 22.2 18 26.2
002EED2C 2019-04-15 23:23:52 22.2 18 26.2
002EED2C 2019-04-15 22:51:28 22.2 18 26.2
002EED2C 2019-04-15 22:19:04 22.2 18 26.1
002EED2C 2019-04-15 21:46:40 22.2 18 26.1
002EED2C 2019-04-15 21:14:15 22.3 17 25.8
002EED2C 2019-04-15 20:41:52 22.5 17 25.8
002EED2C 2019-04-15 20:09:28 22.5 17 25.8
002EED2C 2019-04-15 19:37:04 22.5 17 26.1
002EED2C 2019-04-15 19:04:40 22.5 16 26.2
002EED2C 2019-04-15 18:32:16 22.5 16 26.1
002EED2C 2019-04-15 17:59:52 22.6 16 26.1
002EED2C 2019-04-15 17:27:28 22.7 16 26.2
002EED2C 2019-04-15 16:55:04 22.7 16 25.9
002EED2C 2019-04-15 16:22:40 22.9 16 25.9
002EED2C 2019-04-15 15:50:15 22.9 17 25.9
002EED2C 2019-04-15 15:17:51 22.7 17 25.9
002EED2C 2019-04-15 14:45:27 22.7 17 26
002EED2C 2019-04-15 14:13:02 22.7 17 25.9
002EED2C 2019-04-15 13:40:38 22.7 17 25.7
002EED2C 2019-04-15 13:08:15 22.6 17 25.8
002EED2C 2019-04-15 12:35:50 22.5 17 25.8
002EED2C 2019-04-15 12:03:27 22.4 17 25.8
002EED2C 2019-04-15 11:31:02 22.2 17 25.7
002EED2C 2019-04-15 10:58:38 22.2 17 25.7
002EED2C 2019-04-15 10:26:14 22.2 17 25.8
002EED2C 2019-04-15 09:53:50 22.2 18 25.8
002EED2C 2019-04-15 09:21:24 22.1 18 25.8
002EED2C 2019-04-15 08:48:59 22 18 25.9
002EED2C 2019-04-15 08:16:35 22 18 25.9
002EED2C 2019-04-15 07:44:12 21.9 18 25.9
002EED2C 2019-04-15 07:11:47 21.8 18 25.9
002EED2C 2019-04-15 06:39:24 21.8 18 25.9
002EED2C 2019-04-15 06:07:02 21.8 18 25.7
002EED2C 2019-04-15 05:34:38 21.8 18 25.5
002EED2C 2019-04-15 05:02:14 21.8 18 25.6
002EED2C 2019-04-15 04:29:50 21.8 18 25.6
002EED2C 2019-04-15 03:57:26 21.8 18 25.6
002EED2C 2019-04-15 03:25:02 21.8 18 25.6
002EED2C 2019-04-15 02:52:37 21.8 18 25.5
002EED2C 2019-04-15 02:20:14 21.8 18 25.6
002EED2C 2019-04-15 01:47:48 21.8 18 25.5
002EED2C 2019-04-15 01:15:24 21.8 18 25.4
002EED2C 2019-04-15 00:43:01 21.8 19 25.4
002EED2C 2019-04-15 00:10:38 21.8 19 25.4
002EED2C 2019-04-14 23:38:13 21.8 19 25.2
002EED2C 2019-04-14 23:05:51 21.8 18 25.4
002EED2C 2019-04-14 22:33:27 21.8 18 24.9
002EED2C 2019-04-14 22:01:04 21.9 19 25
002EED2C 2019-04-14 21:28:41 22 19 25.1
002EED2C 2019-04-14 20:56:15 22 19 25.2
002EED2C 2019-04-14 20:23:51 22 19 25.1
002EED2C 2019-04-14 19:51:28 22 19 25.2
002EED2C 2019-04-14 19:19:03 22 19 25.1
002EED2C 2019-04-14 18:46:39 22 19 25.1
002EED2C 2019-04-14 18:14:16 22 19 25
002EED2C 2019-04-14 17:41:51 22 19 25.3
002EED2C 2019-04-14 17:09:27 22 19 25.3
002EED2C 2019-04-14 16:37:02 21.9 19 25.2
002EED2C 2019-04-14 16:04:37 21.8 19 25.2
002EED2C 2019-04-14 15:32:13 21.8 19 25.4
002EED2C 2019-04-14 14:59:48 21.9 19 25.4
002EED2C 2019-04-14 14:27:22 21.9 19 25.3
002EED2C 2019-04-14 13:54:58 21.8 19 25.3
002EED2C 2019-04-14 13:22:34 22 19 25.3
002EED2C 2019-04-14 12:50:10 22 19 25.4
002EED2C 2019-04-14 12:17:47 22 19 25.4
002EED2C 2019-04-14 11:45:22 22 19 25.8
002EED2C 2019-04-14 11:12:57 22 19 25.8
002EED2C 2019-04-14 10:40:33 21.9 19 25.8
002EED2C 2019-04-14 10:08:10 21.9 19 25.9
002EED2C 2019-04-14 09:35:46 21.9 19 25.7
002EED2C 2019-04-14 09:03:22 21.8 19 25.7
002EED2C 2019-04-14 08:30:58 21.9 19 25.7
002EED2C 2019-04-14 07:58:33 21.8 19 25.7
002EED2C 2019-04-14 07:26:08 21.8 19 25.7
002EED2C 2019-04-14 06:53:44 21.9 19 25.8
002EED2C 2019-04-14 06:21:20 21.8 19 25.8
002EED2C 2019-04-14 05:48:55 21.8 19 25.8
002EED2C 2019-04-14 05:16:31 21.8 19 25.8
002EED2C 2019-04-14 04:44:07 21.8 19 25.8
002EED2C 2019-04-14 04:11:41 21.8 19 25.8
002EED2C 2019-04-14 03:39:17 22 19 25.8
002EED2C 2019-04-14 03:06:53 22 19 25.8
002EED2C 2019-04-14 02:34:29 22 19 25.8
002EED2C 2019-04-14 02:02:04 22 19 25.7
002EED2C 2019-04-14 01:29:40 22 19 25.7
002EED2C 2019-04-14 00:57:16 22 19 25.8
002EED2C 2019-04-14 00:24:51 22 19 25.7
002EED2C 2019-04-13 23:52:27 22 19 25.7
002EED2C 2019-04-13 23:20:01 22 19 25.6
002EED2C 2019-04-13 22:47:37 22 19 25.7
002EED2C 2019-04-13 22:15:12 22 18 25.3
002EED2C 2019-04-13 21:42:48 22 18 25.3
002EED2C 2019-04-13 21:10:23 22 18 25.3
002EED2C 2019-04-13 20:37:58 22.1 18 25.4
002EED2C 2019-04-13 20:05:32 22.2 18 25.4
002EED2C 2019-04-13 19:33:07 22.2 18 25.5
002EED2C 2019-04-13 19:00:42 22.2 18 25.5
002EED2C 2019-04-13 18:28:16 22.2 19 25.4
002EED2C 2019-04-13 17:55:50 22.2 19 25.4
002EED2C 2019-04-13 17:23:24 22.2 19 25.3
002EED2C 2019-04-13 16:50:59 22.2 19 25.3
002EED2C 2019-04-13 16:18:33 22.2 19 25.3
002EED2C 2019-04-13 15:46:07 22.2 19 25.2
002EED2C 2019-04-13 15:13:43 22.2 19 25.2
002EED2C 2019-04-13 14:41:17 22.2 18 24.9
002EED2C 2019-04-13 14:08:51 22.4 19 25
002EED2C 2019-04-13 13:36:25 22.4 19 25
002EED2C 2019-04-13 13:04:01 22.4 18 25
002EED2C 2019-04-13 12:31:38 22.5 19 24.9
002EED2C 2019-04-13 11:59:12 22.5 19 24.7
002EED2C 2019-04-13 11:26:47 22.5 19 24.9
002EED2C 2019-04-13 10:54:22 22.4 19 25
002EED2C 2019-04-13 10:21:55 22.4 19 25
002EED2C 2019-04-13 09:49:29 22.3 18 25
002EED2C 2019-04-13 09:17:03 22.3 18 25.1
002EED2C 2019-04-13 08:44:37 22.3 18 25.1
002EED2C 2019-04-13 08:12:10 22.2 18 25.1
002EED2C 2019-04-13 07:39:44 22.3 18 25
002EED2C 2019-04-13 07:07:19 22.2 18 24.9
002EED2C 2019-04-13 06:34:54 22.2 18 24.8
002EED2C 2019-04-13 06:02:29 22.2 18 24.8
002EED2C 2019-04-13 05:30:04 22.2 18 24.8
002EED2C 2019-04-13 04:57:37 22.2 18 24.9
002EED2C 2019-04-13 04:25:12 22.3 18 24.8
002EED2C 2019-04-13 03:52:45 22.2 18 25.2
002EED2C 2019-04-13 03:20:19 22.4 18 25.5
002EED2C 2019-04-13 02:47:54 22.5 18 25.5
002EED2C 2019-04-13 02:15:29 22.5 19 25.4
002EED2C 2019-04-13 01:43:03 22.5 19 25.4
002EED2C 2019-04-13 01:10:37 22.5 19 25.4
002EED2C 2019-04-13 00:38:11 22.5 19 25.4
002EED2C 2019-04-13 00:05:46 22.5 19 25.4
002EED2C 2019-04-12 23:33:20 22.5 19 25.4
002EED2C 2019-04-12 23:00:53 22.6 19 25.6
002EED2C 2019-04-12 22:28:29 22.7 19 25.7
002EED2C 2019-04-12 21:56:03 22.7 19 25.6
002EED2C 2019-04-12 21:23:36 22.7 20 25.6
002EED2C 2019-04-12 20:51:11 22.7 20 25.6
002EED2C 2019-04-12 20:18:43 22.7 19 25.7
002EED2C 2019-04-12 19:46:16 22.7 19 25.6
002EED2C 2019-04-12 19:13:50 22.8 19 25.6
002EED2C 2019-04-12 18:41:24 22.9 18 25.7
002EED2C 2019-04-12 18:08:56 23.1 18 25.9
002EED2C 2019-04-12 17:36:31 23.1 18 26.1
002EED2C 2019-04-12 17:04:05 23.1 19 26.4
002EED2C 2019-04-12 16:31:39 23.3 19 26.5
002EED2C 2019-04-12 15:59:11 23.2 19 26.5
002EED2C 2019-04-12 15:26:46 23.1 19 26.8
002EED2C 2019-04-12 14:54:19 23 20 27.4
002EED2C 2019-04-12 14:21:53 22.9 20 26.1
002EED2C 2019-04-12 13:49:27 22.4 21 20.2
002EED2C 2019-04-12 13:17:00 21.4 23 8.4